Aeroporto :
LOGIN :

Iscrizione | Disclaimer

   EN    FR    IT 

 










Sommario :    VFR   VFR Marginale   IFR   IFR Intensivo   IFR Molto Intensivo
Visibilità : 
Base nubi : 
>= 8 km
>= 3000ft
5 / 8 km
1000 / 3000 ft
1500m / 5 km
500 / 1000 ft
800 / 1500m
200 / 500 ft
< 800m
< 200 ft
Simboli :   Temporali  Nebbia  Neve Forte  Precipitazioni Forti  Vento > 20 kt
SIGMETs :   Varie  Temporali  Ghiacco  Turbolenza  Onda orograficha  Ceneri Vulcaniche







- Altitudine del aeroporto : 187 ft


LPMR - Monte Real Air Base

ULTIMO METAR :
  • 180400Z 15010KT 9999 SCT016 BKN030 17/14 Q1012

METARs OBSOLETI :
  • 180300Z 14005KT 9999 FEW018 BKN035 15/12 Q1012
  • 180200Z 15006KT 9999 FEW020 BKN045 14/11 Q1013

TAF TAF LPMR
Valido dal 18 a 00 ore il 19 a 00 ore UTC


172304Z 1800/1824 16005KT 9999 SCT045
BECMG 1803/1806 15012KT 9000 -RA SCT015 BKN025
PROB30
TEMPO 1805/1808 5000 RA SCT008 BKN014
BECMG 1810/1812 18015KT 9999 NSW SCT035
TEMPO 1810/1818 19018G28KT
BECMG 1820/1822 20010KT SCT004 BKN012
PROB40
TEMPO 1820/1824 3000 DZ BR BKN004
Nessun NOTAM noto per questo aeroporto.



MetMap, La meteo Aeronautica in un colpo d'occhio ! - Copyright ORBIFLY Dicembre 2007 - Disclaimer

ORBIFLY MET'MAP TEAM :

Programmazione e sviluppo : Alexandra Zaïnal
Concezione e sviluppo : Baudouin d'Aumeries
Co-Programmazione e sviluppo : Marc-Olivier Méhu
Supporto tecnico e logistico : Manuel Goepfert
Aiuto per la traduzione : Arnaldo La Scala

Contatto : metmap@orbifly.com




FONTI E CREDITI :

   NOAA